Dewpoint
59 61 61 60 61 61 61 60 57 58 55 53 55 56 55 55 55 58 59 59 58 59 60 63 62 61 59 58 58 57 57 57
58 60 60 59 59 60 60 59 57 57 54 52 55 56 55 55 56 58 59 59 60 61 62 63 61 60 58 57 55 54 50 52
55 58 58 58 58 59 59 58 58 56 55 54 56 56 56 55 58 60 60 62 62 62 62 62 60 59 57 55 54 50 48 50
53 56 57 57 57 58 58 58 59 55 56 57 57 58 60 58 59 59 61 63 63 62 62 62 60 59 57 55 52 49 49 47
51 55 55 56 57 58 58 57 58 57 57 58 57 56 56 57 58 59 62 63 62 62 62 61 60 59 57 55 52 50 49 46
50 54 55 56 56 57 57 56 57 58 57 58 57 56 57 60 59 60 62 62 62 62 61 60 59 59 58 55 52 50 49 48
51 53 55 55 55 56 56 55 56 57 56 57 57 56 57 60 60 60 62 62 61 61 61 59 59 59 58 56 53 50 49 48
52 51 54 55 54 54 55 54 55 57 56 56 56 57 58 59 60 60 61 61 59 60 60 58 58 58 58 57 54 50 49 48
53 51 52 54 54 53 55 55 55 57 56 55 57 58 59 61 61 61 61 61 60 59 59 57 57 57 57 56 55 53 50 50
54 52 52 53 54 54 55 56 56 58 57 57 57 59 59 61 61 61 61 60 59 58 58 57 56 56 56 55 55 54 52 50
54 54 51 53 54 55 56 57 57 58 58 58 58 59 60 61 61 61 60 59 58 57 57 56 55 54 54 54 53 53 52 50
54 54 53 54 55 56 57 58 58 58 59 59 58 59 61 61 61 61 60 58 58 57 57 56 55 53 52 52 52 53 52 52
55 55 55 55 56 56 57 59 59 59 59 59 59 59 59 60 60 60 60 59 58 58 57 55 53 52 52 52 52 52 52 51
50 55 56 57 57 56 57 58 59 59 59 59 59 58 59 57 56 57 56 57 57 56 55 54 53 52 52 52 51 51 52 51
41 46 53 55 55 55 56 55 57 58 60 60 59 58 57 56 56 57 57 57 56 55 55 55 53 53 51 51 50 51 50 48
38 43 48 53 55 55 55 56 56 56 57 57 58 58 57 57 56 56 55 56 55 55 54 54 53 52 52 51 51 50 48 44
33 40 46 50 53 53 54 53 54 56 56 56 56 55 54 54 54 55 54 54 53 53 53 52 52 52 46 46 49 47 44 41
28 33 40 47 51 51 51 51 52 52 52 52 53 53 54 53 53 54 53 53 53 53 52 52 51 50 42 43 44 48 45 41
26 30 34 34 35 37 47 49 49 50 50 50 50 50 50 50 51 51 51 51 50 50 50 50 48 47 42 43 42 45 43 38
Lifted_Index
-3 -3 -3 -2 -1 -0 0 2 3 4 5 5 6 6 6 5 4 4 3 3 3 3 3 2 2 1 1 1 1 1 1 2
-3 -3 -3 -2 -1 -1 0 1 3 4 5 5 5 6 6 5 4 3 3 3 3 3 2 2 1 1 1 0 1 1 2 2
-3 -3 -3 -3 -2 -1 -0 1 2 3 4 4 4 4 4 4 3 3 3 2 2 2 1 1 1 1 0 0 0 1 2 2
-3 -3 -3 -3 -3 -2 -1 -0 1 2 3 2 2 2 2 2 2 2 2 1 1 1 0 0 0 0 -0 -0 0 1 1 2
-3 -3 -3 -3 -3 -2 -2 -1 -1 0 1 1 1 1 1 1 1 1 1 0 -0 -0 -0 -0 -0 -0 -0 -0 0 1 1 1
-4 -4 -4 -4 -3 -3 -2 -2 -1 -1 0 0 0 0 0 0 0 0 0 -0 -1 -1 -0 -0 -0 -0 -0 -0 0 0 0 0
-4 -4 -4 -4 -3 -3 -3 -2 -2 -1 -1 -1 -1 -1 -1 -1 -1 -1 -1 -1 -1 -1 -1 -1 -1 -0 -0 -0 -0 0 0 0
-5 -5 -4 -4 -3 -3 -3 -2 -2 -1 -1 -1 -2 -2 -1 -1 -1 -1 -1 -1 -2 -2 -2 -1 -1 -1 -1 -1 -0 -0 0 0
-4 -4 -4 -4 -4 -3 -3 -3 -2 -2 -1 -1 -2 -2 -2 -2 -2 -2 -1 -1 -2 -2 -2 -2 -2 -1 -1 -1 -0 -0 0 0
-4 -4 -4 -4 -4 -4 -3 -3 -3 -2 -2 -1 -1 -2 -2 -2 -2 -2 -2 -2 -2 -2 -2 -2 -2 -2 -1 -1 -1 -0 0 0
-4 -4 -4 -4 -4 -4 -4 -4 -3 -3 -2 -2 -1 -1 -1 -2 -2 -2 -2 -2 -2 -2 -2 -2 -2 -2 -1 -1 -1 -0 -0 0
-4 -4 -4 -4 -4 -4 -4 -4 -4 -3 -2 -2 -1 -1 -2 -2 -2 -3 -3 -3 -3 -3 -3 -3 -3 -2 -2 -1 -1 -1 -0 0
-3 -3 -3 -4 -4 -4 -4 -4 -4 -3 -2 -2 -1 -1 -2 -2 -3 -3 -3 -3 -3 -3 -2 -2 -2 -2 -2 -1 -1 -1 -0 0
-4 -4 -3 -3 -4 -4 -4 -4 -3 -3 -3 -2 -2 -1 -2 -2 -2 -3 -3 -3 -3 -2 -2 -2 -2 -2 -2 -1 -1 -0 -0 0
-4 -4 -3 -3 -4 -4 -4 -3 -3 -3 -3 -3 -2 -2 -2 -2 -2 -1 -1 -2 -2 -2 -2 -2 -2 -1 -1 -0 -0 0 0 1
-3 -3 -2 -3 -3 -4 -3 -3 -3 -3 -4 -3 -3 -3 -3 -2 -1 -0 0 0 0 0 -0 -1 -1 -1 0 1 1 1 1 1
-0 -0 -0 -1 -2 -3 -3 -2 -2 -3 -3 -3 -2 -2 -2 -2 -1 0 1 2 3 2 1 1 1 1 2 2 1 2 1 1
3 3 2 1 0 -0 -1 -1 -1 -2 -2 -2 -1 -1 -2 -2 -1 -0 1 3 3 3 3 2 3 3 3 2 2 2 2 2
4 4 4 3 2 1 1 0 -1 -1 -1 -1 -1 -2 -2 -2 -1 -0 1 2 2 3 2 3 4 4 3 2 2 2 2 3